Location: Wanzleben
(52.0609°N, 11.4408°E)
Time: 03:02:16
(UTC+00:00)

CZ-4C R/B - Pass Details

Date: 18 September 2020
Orbit: 626 x 1375 km, 63.4° (Epoch: 22 October)

Event Time Altitude Azimuth Distance (km) Brightness Sun altitude
Exits shadow 23:01:58 33° 37° (NE) 1,485 3.7 -36.5°
Drops below altitude 10° 23:05:32 10° 45° (NE) 2,757 5.3 -36.5°
Sets 23:08:25 0° 48° (NE) 3,834 6.1 -36.5°
